Location: Delia
(51.6321°N, 112.3740°W)
Time: 10:57:38
(UTC+00:00)

Envisat - Pass Details

Date: 11 December 2021
Orbit: 764 x 766 km, 98.2° (Epoch: 25 January)

Event Time Altitude Azimuth Distance (km) Brightness Sun altitude
Rises 14:29:25 0° 4° (N) 3,248 6.0 -8.2°
Reaches altitude 10° 14:32:30 10° 345° (NNW) 2,316 5.1 -7.8°
Maximum altitude 14:35:37 17° 307° (NW) 1,894 4.4 -7.4°
Drops below altitude 10° 14:38:43 10° 269° (W) 2,307 5.0 -7.0°
Sets 14:41:48 0° 249° (WSW) 3,228 5.9 -6.6°
